Wind_Speed
25 25 24 24 24 24 24 24 25 25 26 27 28 28 30 31 32 32 32 33 33 34 34 35 36 36 36 36 36 35 36 36 37 37 36 36 37 39 39 41 43 44 46
26 25 25 24 24 25 25 25 25 26 27 27 28 29 30 31 32 33 33 34 34 35 35 36 36 36 36 36 36 37 37 39 40 40 39 39 40 42 43 45 47 49 50
26 25 25 24 24 25 25 26 26 27 27 28 29 30 31 32 33 34 34 35 35 36 36 36 37 37 37 38 39 40 40 41 43 44 45 45 45 45 46 48 50 53 55
26 25 25 25 25 25 26 26 27 28 29 30 30 31 32 33 34 35 35 36 37 38 38 38 38 39 40 41 42 43 44 44 46 48 50 52 53 53 52 51 53 55 57
25 25 24 25 25 25 26 27 28 29 30 31 32 33 34 35 36 37 38 38 39 39 40 41 41 41 42 43 44 46 47 48 49 51 53 55 57 59 61 60 58 59 61
25 24 24 24 25 26 27 28 29 30 31 33 34 35 36 37 38 39 39 40 40 41 41 42 43 44 44 46 47 48 50 51 53 55 56 58 60 62 65 66 66 65 65
24 24 24 25 26 27 28 29 30 32 33 35 36 37 38 40 41 41 41 41 42 42 43 44 45 46 47 48 49 51 52 54 56 57 59 61 63 65 67 69 70 71 70
24 24 25 26 27 28 29 31 32 33 35 37 38 40 41 42 42 43 43 44 44 44 45 46 47 48 49 50 52 53 55 57 58 60 62 63 65 67 69 72 74 75 74
24 25 26 27 28 29 30 32 33 35 37 38 40 41 43 44 45 45 45 45 46 46 47 47 48 50 51 53 54 55 57 59 61 62 64 65 67 69 72 74 77 79 79
25 25 27 28 29 31 32 34 35 37 39 40 42 43 45 46 46 47 47 47 48 48 49 50 51 52 53 54 56 58 60 61 62 64 65 67 69 72 73 76 78 80 83
25 26 28 29 31 32 34 35 37 39 41 43 44 46 47 47 48 48 48 49 49 50 51 52 53 54 55 57 58 60 61 62 64 66 68 70 72 73 75 78 80 82 85
27 28 29 30 32 33 35 37 39 41 43 45 46 47 48 49 49 49 50 51 51 52 53 54 55 56 58 59 60 61 63 64 66 68 70 72 74 75 78 80 82 84 86
28 29 30 31 33 35 38 40 42 44 45 46 47 48 49 50 50 51 52 53 53 54 55 56 57 58 59 60 62 63 65 66 69 71 72 74 76 78 80 82 84 85 87
30 31 32 34 36 38 40 42 44 45 47 48 49 49 50 51 52 53 54 55 55 56 57 58 59 59 61 62 64 66 67 69 71 73 74 76 79 80 82 83 85 86 86
33 34 35 37 39 40 42 43 45 46 47 48 49 50 52 53 54 55 56 56 57 58 59 59 60 61 63 65 67 68 70 72 73 75 77 79 80 82 84 85 85 84 83
36 37 39 40 41 42 43 45 46 47 48 49 50 51 52 54 55 56 57 57 58 58 59 60 62 63 65 68 70 72 73 74 76 78 79 81 82 83 84 84 83 81 78
39 40 41 42 44 44 45 46 47 48 49 50 51 52 53 54 55 56 57 58 58 59 60 62 64 66 68 71 73 74 75 77 78 80 82 83 83 83 82 81 79 75 71
41 42 43 44 44 45 46 46 47 48 49 51 52 53 54 55 56 57 57 58 59 61 62 64 66 69 71 74 75 76 78 79 81 82 83 83 82 82 80 77 73 68 63
42 43 44 44 45 45 46 47 48 49 51 52 52 53 54 55 56 57 58 59 60 62 64 67 69 71 73 76 78 80 81 82 82 83 83 82 81 78 76 72 66 60 55
43 44 44 45 45 46 47 48 49 50 51 51 52 53 54 55 56 57 59 61 63 65 67 69 72 75 77 79 81 83 84 84 83 82 80 79 77 73 68 63 58 52 48
44 44 44 44 45 46 47 48 49 50 50 50 51 53 54 56 57 59 61 63 66 68 70 72 75 78 80 82 84 86 86 85 83 80 77 73 69 64 59 55 50 46 43
42 43 43 44 45 46 47 48 49 49 50 51 52 54 56 57 59 61 64 66 69 71 74 76 78 80 83 85 86 86 85 84 81 76 71 66 60 56 51 47 44 42 40
42 43 44 44 45 46 47 48 48 49 50 52 53 55 57 59 62 64 67 69 72 76 78 81 82 83 84 85 86 84 82 79 75 69 64 58 52 48 44 42 41 39 38
42 43 44 45 45 46 47 48 50 51 52 53 55 57 59 62 64 67 70 74 77 80 82 84 85 85 85 84 82 80 76 72 67 61 55 50 45 42 40 39 38 38 37
43 44 44 45 46 46 48 49 50 51 53 55 57 60 62 65 68 71 74 78 81 84 85 86 87 87 84 81 78 75 70 65 59 53 47 42 39 37 37 37 36 36 35
43 44 44 45 46 47 48 50 51 53 55 58 60 63 66 69 72 75 78 80 83 84 86 86 86 84 81 77 72 68 62 57 51 46 41 38 36 35 34 34 34 34 32
Wind_Direction
272 271 271 271 271 273 275 276 278 280 282 284 286 288 290 291 292 293 293 293 292 291 290 289 288 286 285 283 282 281 280 280 279 278 278 278 279 279 279 279 279 279 279
270 268 268 268 269 270 272 274 276 278 281 283 286 289 291 293 294 294 294 293 292 291 291 290 289 286 284 283 282 282 282 282 281 280 278 277 278 280 281 282 282 282 282
267 267 266 266 267 268 270 273 275 278 280 283 286 289 292 293 294 295 294 293 292 292 291 290 288 286 284 283 283 283 283 283 283 283 282 280 277 276 278 280 281 282 283
266 265 264 265 266 268 270 273 276 278 281 284 287 290 292 293 294 295 295 294 292 291 290 289 288 287 286 284 284 284 284 284 284 285 285 285 284 282 279 278 280 281 282
264 265 265 265 266 268 270 273 276 279 282 285 287 290 292 294 295 295 295 294 293 291 290 289 288 287 287 286 285 285 285 285 285 285 286 287 287 287 286 284 283 283 283
264 264 264 265 267 269 272 275 278 280 283 285 288 290 292 294 295 295 295 294 293 292 290 289 288 287 287 287 287 287 287 287 287 288 288 288 289 289 289 288 287 286 286
263 264 264 266 268 271 273 276 279 281 284 286 288 290 292 294 295 296 296 295 294 292 291 290 289 288 287 287 288 288 288 288 289 290 290 290 291 291 290 290 289 288 288
264 264 266 268 270 273 275 277 280 283 285 287 289 291 293 294 295 295 295 295 294 293 292 291 290 289 289 289 289 289 289 290 291 291 291 292 292 292 292 292 291 290 290
265 266 268 270 272 274 277 279 282 284 287 288 290 292 293 294 295 295 295 294 293 293 293 292 291 290 290 290 290 291 291 292 292 293 293 293 293 294 294 294 294 293 292
267 269 271 273 275 277 279 281 283 286 288 289 290 292 293 294 295 295 294 294 294 294 293 293 292 291 291 292 292 292 293 293 293 294 294 294 295 295 295 295 295 295 294
270 272 274 276 278 280 281 283 285 287 288 290 291 292 294 294 294 294 294 294 294 294 294 293 293 292 292 293 293 293 294 294 295 295 296 296 296 296 297 297 297 297 297
273 275 277 279 281 282 284 286 287 288 289 291 292 293 294 294 294 294 294 294 294 294 294 293 293 293 294 294 295 295 295 296 297 297 298 298 298 299 299 299 299 299 298
274 276 279 281 283 284 285 287 288 290 291 292 292 293 294 294 294 295 295 295 295 295 294 294 295 295 295 296 296 297 298 298 299 300 300 300 300 300 300 300 300 300 299
277 279 281 283 285 286 287 288 290 291 291 292 293 294 294 294 294 295 295 295 295 295 295 296 296 297 297 298 298 299 300 301 301 302 302 302 301 301 301 301 301 300 300
280 282 284 286 287 288 290 291 292 292 293 293 294 294 295 295 295 295 295 296 296 296 297 297 298 299 299 300 301 301 302 302 302 302 303 303 303 303 303 302 302 301 300
282 284 286 288 289 291 292 293 293 294 294 294 295 295 295 295 295 295 296 296 297 298 298 299 299 300 301 302 303 303 303 304 304 304 304 304 304 304 303 303 302 301 300
284 286 287 289 291 292 294 294 294 295 295 295 295 295 295 295 296 296 297 297 298 299 299 300 301 302 303 303 304 304 305 305 305 305 305 305 304 304 303 302 302 301 299
285 287 289 290 292 293 294 294 294 295 295 296 296 296 296 296 297 297 298 298 299 300 301 302 303 303 304 304 305 305 305 306 306 306 306 305 305 304 303 302 301 299 297
286 288 290 291 292 293 294 295 295 296 296 297 297 297 297 297 298 299 299 300 301 302 303 303 304 304 305 305 305 306 306 306 307 307 306 305 304 303 302 301 299 297 295
287 289 291 292 293 294 295 296 296 297 297 298 298 298 299 299 299 300 301 302 302 303 304 305 305 305 306 306 306 306 307 307 307 307 306 305 304 303 301 300 298 296 294
288 289 291 292 294 294 295 296 297 298 298 299 299 300 300 300 301 302 303 303 304 304 305 305 306 307 307 307 307 307 307 307 307 307 305 304 303 301 300 298 297 295 294
289 290 292 294 295 296 297 298 298 299 299 300 300 301 301 302 303 303 304 305 305 305 306 306 307 307 307 307 307 308 308 308 307 307 305 304 302 300 298 297 296 295 294
291 293 294 296 297 298 298 299 299 300 300 301 301 302 303 304 304 305 305 306 306 306 307 307 307 307 308 308 308 308 308 307 307 306 305 303 301 299 297 296 295 295 295
293 295 297 297 298 299 299 300 300 301 302 302 303 304 304 305 305 306 306 307 307 307 308 308 308 308 308 308 308 308 308 307 306 305 303 301 299 297 295 295 294 294 294
295 296 297 298 299 300 300 301 302 303 303 304 304 305 305 306 306 307 307 308 308 308 308 308 309 309 310 310 309 309 308 307 305 303 301 299 297 295 294 294 294 294 293
296 297 299 299 300 301 302 303 304 304 305 305 305 306 306 307 307 307 308 308 309 309 309 310 310 310 311 311 310 309 308 307 305 303 301 300 298 297 295 295 295 294 293
Height
5828 5827 5827 5826 5825 5824 5824 5823 5822 5820 5819 5817 5816 5814 5811 5809 5806 5803 5800 5797 5795 5792 5788 5785 5782 5780 5777 5774 5772 5770 5767 5764 5762 5761 5760 5758 5755 5752 5750 5747 5744 5742 5739
5822 5821 5821 5820 5819 5819 5818 5817 5816 5815 5813 5811 5809 5807 5804 5802 5799 5796 5793 5790 5787 5784 5780 5777 5774 5771 5768 5766 5763 5761 5758 5755 5752 5751 5750 5749 5748 5743 5740 5737 5733 5730 5727
5816 5815 5815 5814 5813 5813 5812 5811 5810 5808 5807 5805 5803 5800 5798 5795 5792 5788 5785 5782 5779 5776 5772 5769 5766 5763 5760 5757 5754 5751 5749 5746 5742 5739 5737 5736 5736 5734 5733 5728 5723 5718 5715
5810 5809 5808 5808 5807 5807 5806 5805 5803 5802 5800 5798 5796 5793 5790 5787 5784 5781 5777 5774 5770 5767 5764 5760 5757 5754 5751 5748 5744 5741 5738 5736 5733 5729 5724 5721 5718 5716 5717 5717 5712 5707 5702
5804 5803 5802 5802 5801 5800 5799 5798 5797 5795 5793 5791 5788 5786 5783 5780 5776 5773 5769 5765 5762 5758 5755 5751 5748 5744 5741 5738 5734 5731 5727 5724 5721 5717 5713 5709 5704 5699 5695 5696 5696 5692 5687
5797 5797 5796 5796 5795 5794 5793 5791 5790 5788 5786 5783 5780 5777 5774 5771 5768 5764 5760 5756 5753 5749 5745 5741 5738 5734 5730 5727 5723 5720 5716 5712 5708 5703 5699 5695 5690 5685 5679 5675 5674 5672 5670
5791 5791 5790 5789 5788 5787 5786 5784 5782 5780 5778 5775 5772 5769 5766 5762 5758 5755 5751 5747 5743 5739 5735 5731 5727 5723 5719 5716 5712 5708 5703 5699 5695 5690 5685 5679 5674 5668 5662 5657 5653 5651 5649
5785 5784 5783 5783 5781 5780 5779 5777 5774 5772 5769 5766 5763 5760 5756 5752 5749 5745 5741 5736 5732 5728 5724 5720 5716 5712 5708 5703 5699 5695 5690 5686 5681 5675 5670 5664 5658 5651 5644 5638 5632 5629 5628
5778 5777 5777 5775 5774 5773 5771 5769 5766 5763 5760 5757 5754 5750 5747 5743 5739 5734 5730 5726 5722 5717 5713 5709 5704 5700 5695 5691 5686 5682 5676 5671 5666 5660 5654 5648 5641 5634 5627 5619 5612 5605 5602
5771 5770 5769 5768 5766 5765 5763 5760 5757 5754 5751 5748 5744 5740 5736 5732 5728 5724 5719 5715 5710 5706 5701 5697 5692 5687 5682 5677 5673 5668 5662 5657 5651 5644 5638 5631 5624 5617 5609 5601 5593 5584 5576
5765 5763 5762 5760 5758 5756 5754 5751 5748 5745 5741 5737 5734 5730 5725 5721 5717 5712 5708 5703 5699 5694 5689 5684 5679 5674 5669 5664 5658 5653 5647 5641 5635 5628 5621 5614 5606 5598 5590 5581 5573 5563 5553
5757 5756 5754 5752 5750 5747 5745 5742 5738 5735 5731 5727 5723 5719 5714 5710 5705 5701 5696 5691 5686 5681 5676 5671 5666 5660 5655 5649 5643 5638 5631 5625 5618 5611 5603 5595 5587 5579 5570 5560 5551 5541 5530
5750 5748 5746 5744 5741 5738 5735 5732 5728 5724 5720 5716 5712 5707 5703 5698 5693 5688 5683 5678 5673 5668 5663 5657 5652 5646 5640 5634 5627 5621 5615 5608 5600 5592 5584 5576 5567 5558 5549 5539 5529 5518 5508
5741 5739 5737 5735 5732 5729 5726 5722 5718 5714 5710 5705 5701 5696 5691 5686 5681 5676 5671 5665 5660 5655 5649 5643 5637 5631 5624 5618 5611 5604 5597 5590 5582 5573 5564 5555 5545 5536 5527 5517 5506 5495 5485
5732 5730 5728 5725 5722 5719 5715 5711 5707 5703 5698 5694 5689 5684 5679 5674 5669 5663 5658 5652 5646 5640 5634 5628 5622 5615 5608 5601 5594 5587 5580 5572 5564 5554 5544 5534 5524 5513 5503 5493 5483 5472 5462
5722 5720 5718 5715 5712 5708 5704 5700 5696 5691 5687 5682 5677 5672 5667 5662 5656 5650 5645 5639 5633 5626 5620 5613 5606 5599 5592 5584 5576 5568 5561 5552 5543 5534 5524 5513 5502 5491 5480 5469 5458 5448 5438
5713 5710 5707 5704 5701 5697 5693 5689 5685 5680 5675 5670 5665 5660 5655 5649 5643 5637 5631 5625 5619 5612 5606 5598 5591 5583 5575 5566 5558 5550 5541 5532 5522 5512 5502 5491 5480 5467 5457 5448 5438 5428 5417
5702 5699 5697 5693 5690 5686 5682 5678 5673 5668 5664 5658 5653 5647 5642 5636 5630 5624 5617 5611 5605 5598 5591 5583 5575 5567 5558 5548 5540 5530 5522 5512 5502 5490 5479 5468 5457 5445 5434 5426 5418 5410 5401
5692 5689 5686 5682 5679 5675 5670 5666 5661 5657 5651 5646 5640 5635 5629 5623 5617 5610 5604 5597 5590 5583 5575 5567 5558 5550 5541 5530 5520 5509 5501 5492 5481 5469 5457 5444 5434 5424 5413 5404 5398 5392 5386
5681 5678 5675 5671 5667 5663 5659 5654 5649 5644 5639 5633 5628 5622 5615 5609 5603 5597 5590 5582 5575 5568 5559 5551 5541 5531 5521 5510 5499 5488 5478 5470 5461 5449 5437 5423 5412 5403 5394 5385 5380 5375 5371
5671 5667 5664 5660 5656 5652 5647 5642 5637 5632 5626 5621 5615 5609 5602 5596 5589 5582 5575 5567 5560 5552 5543 5535 5525 5513 5501 5490 5478 5466 5454 5444 5436 5427 5416 5405 5394 5385 5377 5369 5364 5360 5356
5660 5656 5652 5648 5644 5639 5635 5630 5625 5619 5614 5608 5602 5596 5589 5582 5575 5567 5560 5551 5542 5534 5525 5515 5506 5495 5481 5468 5456 5445 5432 5420 5411 5403 5395 5385 5376 5368 5362 5356 5352 5348 5344
5648 5644 5641 5636 5632 5627 5622 5617 5612 5607 5601 5595 5589 5582 5575 5568 5560 5551 5543 5534 5524 5514 5505 5494 5485 5475 5463 5449 5435 5423 5411 5400 5389 5382 5374 5367 5360 5354 5349 5345 5340 5336 5333
5637 5633 5629 5624 5620 5615 5610 5605 5599 5594 5588 5582 5575 5568 5561 5553 5545 5535 5526 5516 5505 5494 5483 5472 5461 5452 5442 5428 5415 5404 5393 5382 5372 5364 5358 5352 5346 5341 5337 5334 5330 5326 5322
5625 5621 5617 5612 5607 5602 5597 5592 5587 5581 5575 5568 5561 5553 5545 5537 5529 5520 5509 5497 5486 5471 5459 5448 5437 5426 5418 5407 5394 5382 5373 5364 5356 5349 5344 5340 5335 5331 5327 5323 5319 5316 5312
5613 5609 5605 5600 5595 5590 5585 5579 5573 5567 5561 5554 5546 5538 5530 5520 5511 5501 5493 5480 5466 5454 5439 5424 5412 5402 5392 5383 5374 5364 5355 5347 5340 5335 5331 5327 5324 5320 5317 5313 5309 5306 5302